DLH457 KLAX-EDDF

Flight info

Callsign DLH457
Flight time N/A
Altitude 33000
Route OSHNN1 BEALE J146 DVC DCT PUB DCT HYS J24 MCI DCT KK60K/N0481F350 DCT BVT DCT DJB DCT DORET Q29 JHW Q84 PUPPY DCT EBONY N567B TUDEP/M083F370 NATT BEXET/N0480F370 DCT DIRUM DCT MORAG/N0476F390 DCT NUCHU L607 KONAN DCT KOK UL607 FERDI DCT REMBA DCT SPI T180 NIVNU T847 IMCOM IMCOM1D
Aircraft A346/H-SDE2E3FGHIJ3J4J5M1RWXY/LB1D1

Departure

Time 2026-05-07 22:33
Airport Los Angeles International Airport (KLAX)

Arrival

Time N/A
Airport Frankfurt Main Airport (EDDF)
Time Latitude Longitude Altitude Speed Heading
2026-05-07 21:59 33.94395 -118.41139 102 ft 0 kts 85°
2026-05-07 22:17 33.94393 -118.41153 110 ft 4 kts 85°
2026-05-07 22:17 33.94390 -118.41185 112 ft 3 kts 84°
2026-05-07 22:18 33.94389 -118.41210 103 ft 4 kts 97°
2026-05-07 22:18 33.94410 -118.41242 101 ft 4 kts 170°
2026-05-07 22:18 33.94435 -118.41246 101 ft 4 kts 173°
2026-05-07 22:19 33.94454 -118.41249 102 ft 0 kts 173°
2026-05-07 22:22 33.94438 -118.41247 101 ft 5 kts 173°
2026-05-07 22:22 33.94394 -118.41240 101 ft 7 kts 173°
2026-05-07 22:22 33.94339 -118.41232 101 ft 9 kts 173°
2026-05-07 22:22 33.94276 -118.41223 102 ft 10 kts 172°
2026-05-07 22:23 33.94204 -118.41211 102 ft 11 kts 172°
2026-05-07 22:23 33.94123 -118.41199 101 ft 12 kts 172°
2026-05-07 22:23 33.94036 -118.41185 102 ft 13 kts 173°
2026-05-07 22:23 33.93955 -118.41173 103 ft 9 kts 173°
2026-05-07 22:24 33.93887 -118.41164 102 ft 10 kts 175°
2026-05-07 22:24 33.93819 -118.41155 102 ft 8 kts 171°
2026-05-07 22:24 33.93777 -118.41114 102 ft 8 kts 109°
2026-05-07 22:24 33.93774 -118.41031 101 ft 12 kts 85°
2026-05-07 22:25 33.93786 -118.40910 102 ft 16 kts 83°
2026-05-07 22:25 33.93800 -118.40765 105 ft 19 kts 84°
2026-05-07 22:25 33.93818 -118.40599 103 ft 22 kts 82°
2026-05-07 22:25 33.93837 -118.40409 106 ft 23 kts 83°
2026-05-07 22:26 33.93857 -118.40211 104 ft 24 kts 83°
2026-05-07 22:26 33.93878 -118.40008 104 ft 25 kts 83°
2026-05-07 22:26 33.93899 -118.39798 106 ft 26 kts 83°
2026-05-07 22:26 33.93921 -118.39581 103 ft 26 kts 83°
2026-05-07 22:27 33.93943 -118.39365 103 ft 24 kts 83°
2026-05-07 22:27 33.93964 -118.39169 104 ft 24 kts 83°
2026-05-07 22:27 33.93984 -118.38970 104 ft 24 kts 83°
2026-05-07 22:27 33.94005 -118.38767 102 ft 22 kts 83°
2026-05-07 22:28 33.94018 -118.38635 104 ft 12 kts 83°
2026-05-07 22:28 33.94028 -118.38532 104 ft 13 kts 83°
2026-05-07 22:28 33.94039 -118.38423 106 ft 14 kts 82°
2026-05-07 22:28 33.94052 -118.38305 106 ft 15 kts 83°
2026-05-07 22:29 33.94057 -118.38254 103 ft 1 kts 83°
2026-05-07 22:29 33.94059 -118.38231 103 ft 5 kts 83°
2026-05-07 22:29 33.94065 -118.38177 102 ft 8 kts 83°
2026-05-07 22:29 33.94072 -118.38109 101 ft 7 kts 83°
2026-05-07 22:30 33.94077 -118.38045 101 ft 6 kts 93°
2026-05-07 22:30 33.94050 -118.38010 102 ft 7 kts 159°
2026-05-07 22:30 33.94005 -118.38006 102 ft 6 kts 200°
2026-05-07 22:30 33.93982 -118.38039 101 ft 4 kts 248°
2026-05-07 22:31 33.93978 -118.38061 102 ft 0 kts 265°
2026-05-07 22:32 33.93978 -118.38070 102 ft 7 kts 265°
2026-05-07 22:32 33.93947 -118.38375 107 ft 67 kts 263°
2026-05-07 22:32 33.93866 -118.39175 105 ft 123 kts 263°
2026-05-07 22:32 33.93741 -118.40404 107 ft 171 kts 263°
2026-05-07 22:33 33.93594 -118.41933 423 ft 187 kts 262°
2026-05-07 22:33 33.93440 -118.43481 1092 ft 186 kts 262°
2026-05-07 22:33 33.93264 -118.45015 1694 ft 188 kts 257°
2026-05-07 22:33 33.92762 -118.46474 2197 ft 193 kts 237°
2026-05-07 22:34 33.91934 -118.47822 2466 ft 207 kts 233°
2026-05-07 22:34 33.91008 -118.49214 2730 ft 220 kts 232°
2026-05-07 22:34 33.89983 -118.50677 2985 ft 235 kts 232°
2026-05-07 22:34 33.88885 -118.52223 3251 ft 250 kts 231°
2026-05-07 22:35 33.87725 -118.53865 3509 ft 264 kts 231°
2026-05-07 22:35 33.86299 -118.55346 3817 ft 280 kts 208°
2026-05-07 22:35 33.84394 -118.55935 4373 ft 287 kts 181°
2026-05-07 22:35 33.82438 -118.55568 5011 ft 288 kts 169°
2026-05-07 22:36 33.80469 -118.55006 5531 ft 292 kts 170°
2026-05-07 22:36 33.78474 -118.54453 6084 ft 296 kts 170°
2026-05-07 22:36 33.76481 -118.53913 6663 ft 297 kts 168°
2026-05-07 22:36 33.74452 -118.53359 7219 ft 300 kts 169°
2026-05-07 22:37 33.72398 -118.52806 7793 ft 303 kts 167°
2026-05-07 22:37 33.70445 -118.51857 8324 ft 305 kts 141°
2026-05-07 22:37 33.69061 -118.49961 8917 ft 303 kts 114°
2026-05-07 22:37 33.68307 -118.47599 9537 ft 302 kts 107°
2026-05-07 22:38 33.67641 -118.45195 10128 ft 304 kts 107°
2026-05-07 22:38 33.66957 -118.42780 10690 ft 305 kts 107°
2026-05-07 22:38 33.66256 -118.40354 11032 ft 316 kts 107°
2026-05-07 22:38 33.65507 -118.37799 11274 ft 330 kts 107°
2026-05-07 22:39 33.64851 -118.35108 11509 ft 342 kts 100°
2026-05-07 22:39 33.64507 -118.32233 11746 ft 354 kts 92°
2026-05-07 22:39 33.64448 -118.29219 11979 ft 366 kts 89°
2026-05-07 22:39 33.64456 -118.26103 12263 ft 377 kts 88°
2026-05-07 22:40 33.64470 -118.22935 12771 ft 381 kts 88°
2026-05-07 22:40 33.64827 -118.19784 13291 ft 383 kts 71°
2026-05-07 22:40 33.66062 -118.16952 13817 ft 384 kts 52°
2026-05-07 22:40 33.68004 -118.14748 14320 ft 387 kts 37°
2026-05-07 22:41 33.70172 -118.12827 14858 ft 388 kts 37°
2026-05-07 22:41 33.72331 -118.10916 15338 ft 391 kts 37°
2026-05-07 22:41 33.74530 -118.08961 15828 ft 394 kts 37°
2026-05-07 22:41 33.76738 -118.06989 16300 ft 396 kts 37°
2026-05-07 22:42 33.78959 -118.04999 16819 ft 398 kts 37°
2026-05-07 22:42 33.81181 -118.03005 17360 ft 399 kts 37°
2026-05-07 22:42 33.83417 -118.00996 17888 ft 402 kts 37°
2026-05-07 22:42 33.85670 -117.98969 18367 ft 405 kts 37°
2026-05-07 22:43 33.87930 -117.96933 18802 ft 407 kts 37°
2026-05-07 22:43 33.90179 -117.94908 19231 ft 409 kts 37°
2026-05-07 22:43 33.92459 -117.92841 19675 ft 411 kts 37°
2026-05-07 22:43 33.94745 -117.90750 20079 ft 414 kts 37°
2026-05-07 22:44 33.97045 -117.88646 20483 ft 416 kts 37°
2026-05-07 22:44 33.99363 -117.86525 20887 ft 419 kts 37°
2026-05-07 22:44 34.01692 -117.84392 21281 ft 421 kts 37°
2026-05-07 22:44 34.04040 -117.82242 21690 ft 424 kts 37°
2026-05-07 22:45 34.06353 -117.80079 22061 ft 427 kts 39°
2026-05-07 22:45 34.08588 -117.77693 22466 ft 430 kts 43°
2026-05-07 22:45 34.10681 -117.75099 22865 ft 432 kts 47°
2026-05-07 22:45 34.12643 -117.72316 23229 ft 435 kts 49°
2026-05-07 22:46 34.14564 -117.69480 23587 ft 438 kts 50°
2026-05-07 22:46 34.16493 -117.66606 23902 ft 440 kts 50°
2026-05-07 22:46 34.18425 -117.63727 24247 ft 442 kts 50°